�������l�o���
Date,Time,MP-1(��Sv/h),MP-2(��Sv/h),MP-3(��Sv/h),MP-4(��Sv/h),MP-5(��Sv/h),MP-6(��Sv/h),MP-7(��Sv/h),����,����(m/s),���J
2016/04/27,00:00,0.458,0.263,0.473,0.423,0.391,0.213,0.185,�k,9.0,��
2016/04/27,00:10,0.454,0.263,0.477,0.420,0.391,0.214,0.185,�k,8.4,��
2016/04/27,00:20,0.455,0.263,0.477,0.421,0.393,0.214,0.186,�k,8.4,��
2016/04/27,00:30,0.455,0.261,0.476,0.421,0.392,0.214,0.185,�k,9.3,��
2016/04/27,00:40,0.455,0.263,0.476,0.419,0.392,0.214,0.185,�k�k��,9.6,��
2016/04/27,00:50,0.457,0.263,0.475,0.421,0.392,0.214,0.186,�k�k��,10.0,��
2016/04/27,01:00,0.454,0.263,0.478,0.420,0.390,0.212,0.186,�k�k��,9.5,��
2016/04/27,01:10,0.457,0.262,0.475,0.421,0.394,0.213,0.185,�k�k��,9.8,��
2016/04/27,01:20,0.453,0.262,0.476,0.420,0.392,0.213,0.185,�k�k��,10.1,��
2016/04/27,01:30,0.455,0.264,0.476,0.420,0.392,0.214,0.186,�k�k��,9.3,��
2016/04/27,01:40,0.455,0.263,0.475,0.423,0.393,0.214,0.186,�k�k��,9.2,��
2016/04/27,01:50,0.455,0.263,0.478,0.419,0.392,0.213,0.186,�k,9.1,��
2016/04/27,02:00,0.458,0.264,0.475,0.421,0.392,0.214,0.186,�k,9.9,��
2016/04/27,02:10,0.454,0.262,0.477,0.419,0.393,0.213,0.187,�k�k��,8.9,��
2016/04/27,02:20,0.456,0.264,0.476,0.420,0.391,0.213,0.186,�k,9.2,��
2016/04/27,02:30,0.453,0.264,0.476,0.423,0.394,0.214,0.186,�k,8.9,��
2016/04/27,02:40,0.453,0.264,0.478,0.420,0.393,0.212,0.186,�k,8.4,��
2016/04/27,02:50,0.456,0.264,0.474,0.422,0.391,0.214,0.185,�k,7.9,��
2016/04/27,03:00,0.453,0.262,0.480,0.420,0.393,0.214,0.186,�k,7.7,��
2016/04/27,03:10,0.457,0.263,0.476,0.421,0.392,0.213,0.186,�k,8.2,��
2016/04/27,03:20,0.455,0.263,0.476,0.422,0.393,0.214,0.185,�k,8.0,��
2016/04/27,03:30,0.454,0.262,0.477,0.420,0.393,0.215,0.187,�k,7.1,��
2016/04/27,03:40,0.456,0.263,0.474,0.422,0.391,0.212,0.187,�k,6.1,��
2016/04/27,03:50,0.455,0.264,0.477,0.422,0.393,0.213,0.187,�k,7.0,��
2016/04/27,04:00,0.456,0.263,0.476,0.420,0.392,0.214,0.186,�k,6.4,��
2016/04/27,04:10,0.457,0.264,0.477,0.423,0.391,0.214,0.186,�k,5.6,��
2016/04/27,04:20,0.456,0.264,0.477,0.420,0.392,0.214,0.188,�k,6.0,��
2016/04/27,04:30,0.458,0.263,0.475,0.421,0.392,0.214,0.185,�k,6.2,��
2016/04/27,04:40,0.454,0.264,0.477,0.423,0.392,0.213,0.185,�k,5.9,��
2016/04/27,04:50,0.457,0.263,0.475,0.420,0.393,0.214,0.186,�k,5.7,��
2016/04/27,05:00,0.458,0.261,0.477,0.422,0.392,0.213,0.186,�k,5.5,��
2016/04/27,05:10,0.455,0.264,0.479,0.419,0.392,0.214,0.185,�k,5.6,��
2016/04/27,05:20,0.456,0.263,0.474,0.421,0.391,0.214,0.185,�k,5.1,��
2016/04/27,05:30,0.454,0.263,0.477,0.423,0.392,0.214,0.186,�k,5.0,��
2016/04/27,05:40,0.456,0.264,0.474,0.420,0.392,0.212,0.186,�k,4.2,��
2016/04/27,05:50,0.456,0.262,0.475,0.420,0.393,0.213,0.186,�k,4.3,��
2016/04/27,06:00,0.455,0.263,0.479,0.420,0.391,0.213,0.186,�k,3.1,��
2016/04/27,06:10,0.457,0.263,0.476,0.420,0.391,0.214,0.186,�k,5.1,��
2016/04/27,06:20,0.453,0.262,0.478,0.422,0.391,0.213,0.185,�k�k��,5.8,��
2016/04/27,06:30,0.458,0.263,0.474,0.419,0.393,0.213,0.186,�k�k��,5.4,��
2016/04/27,06:40,0.455,0.262,0.478,0.422,0.391,0.214,0.185,�k�k��,4.9,��
2016/04/27,06:50,0.457,0.263,0.476,0.420,0.391,0.212,0.186,�k,4.4,��
2016/04/27,07:00,0.454,0.263,0.477,0.419,0.391,0.214,0.186,�k,4.6,��
2016/04/27,07:10,0.456,0.263,0.473,0.420,0.392,0.213,0.186,�k,3.6,��
2016/04/27,07:20,0.454,0.261,0.475,0.419,0.392,0.214,0.185,�k,3.9,��
2016/04/27,07:30,0.455,0.262,0.473,0.418,0.392,0.213,0.185,�k,4.3,��
2016/04/27,07:40,0.454,0.261,0.477,0.421,0.395,0.214,0.186,�k,3.6,��
2016/04/27,07:50,0.454,0.263,0.474,0.416,0.391,0.213,0.185,�k�k��,3.6,��
2016/04/27,08:00,0.455,0.261,0.478,0.419,0.395,0.213,0.186,�k�k��,3.6,��
2016/04/27,08:10,0.454,0.262,0.474,0.418,0.391,0.214,0.186,�k�k��,4.9,��
2016/04/27,08:20,0.453,0.261,0.478,0.415,0.393,0.213,0.186,�k�k��,4.8,��
2016/04/27,08:30,0.457,0.262,0.474,0.422,0.392,0.214,0.185,�k,5.8,��
2016/04/27,08:40,0.452,0.263,0.477,0.415,0.392,0.213,0.185,�k,6.4,��
2016/04/27,08:50,0.456,0.260,0.475,0.419,0.393,0.212,0.187,�k�k��,7.5,��
2016/04/27,09:00,0.452,0.263,0.479,0.422,0.391,0.213,0.186,�k�k��,6.2,��
2016/04/27,09:10,0.455,0.261,0.474,0.418,0.393,0.212,0.186,�k�k��,7.3,��
2016/04/27,09:20,0.452,0.265,0.479,0.424,0.390,0.213,0.186,�k,6.2,��
2016/04/27,09:30,0.457,0.263,0.473,0.418,0.394,0.213,0.186,�k,7.0,��
2016/04/27,09:40,0.454,0.261,0.478,0.415,0.393,0.212,0.186,�k,6.3,��
2016/04/27,09:50,0.457,0.264,0.473,0.421,0.391,0.213,0.186,�k�k��,7.8,��
2016/04/27,10:00,0.454,0.261,0.478,0.418,0.395,0.212,0.184,�k�k��,6.6,��
2016/04/27,10:10,0.454,0.264,0.476,0.416,0.390,0.213,0.187,�k,7.0,��
2016/04/27,10:20,0.456,0.262,0.475,0.423,0.396,0.213,0.186,�k�k��,7.1,��
2016/04/27,10:30,0.453,0.265,0.478,0.418,0.390,0.213,0.186,�k,6.5,��
2016/04/27,10:40,0.459,0.262,0.470,0.415,0.394,0.213,0.186,�k�k��,7.2,��
2016/04/27,10:50,0.453,0.264,0.476,0.423,0.393,0.213,0.184,�k�k��,5.3,��
2016/04/27,11:00,0.458,0.264,0.474,0.421,0.390,0.213,0.187,�k,5.3,��
2016/04/27,11:10,0.455,0.264,0.474,0.416,0.395,0.213,0.187,�k,5.1,��
2016/04/27,11:20,0.458,0.262,0.478,0.421,0.393,0.213,0.186,�k,5.6,��
2016/04/27,11:30,0.455,0.263,0.476,0.423,0.391,0.214,0.187,�k,5.3,��
2016/04/27,11:40,0.454,0.265,0.473,0.418,0.395,0.213,0.187,�k,5.9,��
2016/04/27,11:50,0.458,0.263,0.480,0.420,0.392,0.213,0.185,�k,5.6,��
2016/04/27,12:00,0.453,0.264,0.476,0.422,0.394,0.213,0.187,�k�k��,5.7,��
2016/04/27,12:10,0.458,0.262,0.471,0.418,0.394,0.213,0.186,�k�k��,4.5,��
2016/04/27,12:20,0.453,0.263,0.480,0.419,0.390,0.213,0.188,�k�k��,3.9,��
2016/04/27,12:30,0.458,0.264,0.475,0.423,0.396,0.213,0.185,�k�k��,5.3,��
2016/04/27,12:40,0.453,0.263,0.471,0.420,0.392,0.214,0.187,�k�k��,5.1,��
2016/04/27,12:50,0.458,0.263,0.479,0.420,0.391,0.213,0.187,�k��,5.4,��
2016/04/27,13:00,0.456,0.263,0.477,0.423,0.394,0.214,0.186,�k��,5.2,��
2016/04/27,13:10,0.458,0.265,0.476,0.420,0.391,0.213,0.187,�k��,5.6,��
2016/04/27,13:20,0.455,0.263,0.479,0.420,0.394,0.213,0.187,�k��,6.2,��
2016/04/27,13:30,0.458,0.264,0.475,0.425,0.395,0.214,0.188,�k�k��,5.1,��
2016/04/27,13:40,0.458,0.264,0.474,0.419,0.388,0.213,0.187,�k�k��,5.7,��
2016/04/27,13:50,0.455,0.264,0.480,0.418,0.396,0.214,0.186,�k�k��,5.4,��
2016/04/27,14:00,0.458,0.264,0.477,0.423,0.394,0.214,0.186,�k,4.9,��
2016/04/27,14:10,0.455,0.263,0.479,0.420,0.393,0.214,0.185,�k,4.5,��
2016/04/27,14:20,0.458,0.265,0.479,0.425,0.395,0.214,0.188,�k�k��,4.0,��
2016/04/27,14:30,0.455,0.262,0.475,0.422,0.393,0.214,0.186,�k��,3.6,��
2016/04/27,14:40,0.460,0.265,0.480,0.421,0.398,0.214,0.186,�k��,3.1,��
2016/04/27,14:50,0.455,0.264,0.474,0.424,0.392,0.212,0.186,�k��,4.4,��
2016/04/27,15:00,0.458,0.265,0.480,0.420,0.397,0.213,0.187,�k�k��,4.3,��
2016/04/27,15:10,0.455,0.263,0.477,0.426,0.395,0.212,0.186,�k�k��,4.3,��
2016/04/27,15:20,0.459,0.265,0.479,0.420,0.397,0.215,0.187,�k�k��,3.9,��
2016/04/27,15:30,0.455,0.263,0.477,0.425,0.394,0.214,0.187,�k�k��,3.8,��
2016/04/27,15:40,0.458,0.264,0.477,0.420,0.395,0.214,0.186,�k�k��,3.9,��
2016/04/27,15:50,0.456,0.263,0.480,0.424,0.395,0.213,0.185,�k,3.5,��
2016/04/27,16:00,0.461,0.264,0.477,0.422,0.395,0.214,0.187,�k�k��,4.1,��
2016/04/27,16:10,0.454,0.263,0.478,0.424,0.394,0.213,0.186,�k�k��,2.8,��
2016/04/27,16:20,0.457,0.264,0.475,0.422,0.395,0.215,0.186,�k�k��,2.9,��
2016/04/27,16:30,0.456,0.265,0.480,0.423,0.395,0.214,0.186,�k�k��,2.9,��
2016/04/27,16:40,0.458,0.264,0.476,0.422,0.394,0.214,0.188,�k�k��,3.6,��
2016/04/27,16:50,0.455,0.265,0.481,0.422,0.395,0.213,0.186,�k,3.9,��
2016/04/27,17:00,0.458,0.264,0.477,0.423,0.394,0.214,0.188,�k,2.6,��
2016/04/27,17:10,0.456,0.265,0.479,0.423,0.394,0.214,0.186,�k,3.6,��
2016/04/27,17:20,0.458,0.263,0.476,0.421,0.395,0.213,0.187,�k,4.2,��
2016/04/27,17:30,0.455,0.265,0.477,0.424,0.393,0.214,0.188,�k,4.4,��
2016/04/27,17:40,0.456,0.263,0.477,0.422,0.396,0.214,0.188,�k,4.5,��
2016/04/27,17:50,0.458,0.264,0.478,0.423,0.392,0.213,0.187,�k,3.9,��
2016/04/27,18:00,0.455,0.263,0.479,0.419,0.396,0.213,0.186,�k,3.1,��
2016/04/27,18:10,0.459,0.264,0.478,0.424,0.392,0.214,0.187,�k,3.6,��
2016/04/27,18:20,0.455,0.265,0.479,0.421,0.396,0.214,0.187,�k,3.6,��
2016/04/27,18:30,0.459,0.263,0.477,0.423,0.392,0.213,0.187,�k,4.1,��
2016/04/27,18:40,0.456,0.264,0.480,0.421,0.395,0.214,0.186,�k,3.3,��
2016/04/27,18:50,0.458,0.264,0.476,0.424,0.394,0.214,0.187,�k,4.0,��
2016/04/27,19:00,0.456,0.265,0.481,0.421,0.392,0.214,0.186,�k,4.0,��
2016/04/27,19:10,0.457,0.263,0.476,0.423,0.396,0.214,0.186,�k,4.3,��
2016/04/27,19:20,0.456,0.263,0.482,0.423,0.393,0.214,0.187,�k,3.8,��
2016/04/27,19:30,0.457,0.265,0.475,0.425,0.396,0.215,0.186,�k,3.9,��
2016/04/27,19:40,0.457,0.263,0.479,0.424,0.393,0.213,0.187,�k,3.7,��
2016/04/27,19:50,0.455,0.264,0.477,0.423,0.396,0.215,0.187,�k,3.5,��
2016/04/27,20:00,0.457,0.263,0.480,0.423,0.393,0.213,0.187,�k,5.0,��
2016/04/27,20:10,0.457,0.265,0.478,0.420,0.392,0.214,0.187,�k,4.3,��
2016/04/27,20:20,0.459,0.263,0.478,0.425,0.395,0.214,0.187,�k,2.5,��
2016/04/27,20:30,0.456,0.266,0.479,0.423,0.393,0.215,0.187,�k�k��,1.6,��
2016/04/27,20:40,0.459,0.265,0.477,0.426,0.395,0.215,0.188,�k,2.0,��
2016/04/27,20:50,0.456,0.264,0.479,0.421,0.393,0.214,0.187,�k,3.1,�L
2016/04/27,21:00,0.459,0.266,0.477,0.426,0.395,0.215,0.188,�k,2.9,�L
2016/04/27,21:10,0.460,0.265,0.481,0.423,0.394,0.216,0.187,�k�k��,3.9,�L
2016/04/27,21:20,0.457,0.267,0.479,0.425,0.394,0.217,0.188,�k�k��,3.9,�L
2016/04/27,21:30,0.462,0.265,0.482,0.425,0.395,0.216,0.188,�k�k��,3.9,�L
2016/04/27,21:40,0.458,0.265,0.479,0.423,0.393,0.217,0.188,�k,5.0,�L
2016/04/27,21:50,0.460,0.266,0.479,0.424,0.395,0.216,0.189,�k,5.5,�L
2016/04/27,22:00,0.458,0.264,0.481,0.421,0.394,0.217,0.189,�k,5.1,�L
2016/04/27,22:10,0.457,0.265,0.477,0.422,0.392,0.216,0.188,�k,5.5,�L
2016/04/27,22:20,0.459,0.266,0.479,0.424,0.393,0.215,0.187,�k,5.2,�L
2016/04/27,22:30,0.457,0.264,0.476,0.422,0.392,0.215,0.188,�k,4.7,�L
2016/04/27,22:40,0.457,0.265,0.478,0.423,0.393,0.215,0.188,�k,5.0,�L
2016/04/27,22:50,0.456,0.264,0.479,0.420,0.392,0.213,0.188,�k,5.4,�L
2016/04/27,23:00,0.456,0.265,0.475,0.422,0.391,0.215,0.187,�k�k��,5.3,�L
2016/04/27,23:10,0.458,0.264,0.480,0.420,0.394,0.213,0.185,�k,5.0,�L
2016/04/27,23:20,0.454,0.263,0.475,0.419,0.391,0.214,0.185,�k,5.4,�L
2016/04/27,23:30,0.457,0.265,0.478,0.421,0.390,0.214,0.187,�k,6.0,�L
2016/04/27,23:40,0.456,0.263,0.476,0.419,0.391,0.214,0.186,�k,6.4,�L
2016/04/27,23:50,0.456,0.264,0.475,0.421,0.389,0.215,0.187,�k,6.0,�L
